Time,TemperatureF,DewpointF,PressureIn,WindDirection,WindDirectionDegrees,WindSpeedMPH,WindSpeedGustMPH,Humidity,HourlyPrecipIn,Conditions,Clouds,dailyrainin,SolarRadiationWatts/m^2,SoftwareType,DateUTC
2013-07-25 02:33:00,51.0,48.0,-100.00,NW,323,1.0,4.0,91,-99.99,,,0.00,0.000000,,2013-07-25 09:33:00,
2013-07-25 02:43:00,51.0,48.0,-100.00,NW,323,1.0,4.0,91,-99.99,,,0.00,0.000000,,2013-07-25 09:43:00,
2013-07-25 02:53:00,51.0,48.0,-100.00,NW,323,1.0,4.0,91,-99.99,,,0.00,0.000000,,2013-07-25 09:53:00,
2013-07-25 03:02:00,51.0,48.0,-100.00,NW,323,1.0,4.0,91,-99.99,,,0.00,0.000000,,2013-07-25 10:02:00,
2013-07-25 03:53:00,48.0,46.0,-100.00,ENE,71,1.0,4.0,93,0.00,,,0.00,0.000000,,2013-07-25 10:53:00,
2013-07-25 04:32:00,48.0,46.0,-100.00,East,100,1.0,5.0,94,0.00,,,0.00,0.000000,,2013-07-25 11:32:00,
2013-07-25 04:43:00,48.0,46.0,-100.00,East,100,1.0,5.0,94,0.00,,,0.00,0.000000,,2013-07-25 11:43:00,
2013-07-25 04:52:00,48.0,46.0,-100.00,East,100,1.0,5.0,94,0.00,,,0.00,0.000000,,2013-07-25 11:52:00,
2013-07-25 05:32:00,47.0,46.0,-100.00,NW,314,1.0,4.0,95,-99.99,,,0.00,0.000000,,2013-07-25 12:32:00,
2013-07-25 05:45:00,47.0,46.0,-100.00,NW,314,1.0,4.0,95,-99.99,,,0.00,0.000000,,2013-07-25 12:45:00,
2013-07-25 05:53:00,47.0,46.0,-100.00,NW,314,1.0,4.0,95,-99.99,,,0.00,0.000000,,2013-07-25 12:53:00,
2013-07-25 06:02:00,47.0,46.0,-100.00,NW,314,1.0,4.0,95,-99.99,,,0.00,0.000000,,2013-07-25 13:02:00,
2013-07-25 06:43:00,46.0,45.0,-100.00,NNE,26,1.0,5.0,95,0.00,,,0.00,3.000000,,2013-07-25 13:43:00,
2013-07-25 06:53:00,46.0,45.0,-100.00,NNE,26,1.0,5.0,95,0.00,,,0.00,3.000000,,2013-07-25 13:53:00,
2013-07-25 07:02:00,46.0,45.0,-100.00,NNE,26,1.0,5.0,95,0.00,,,0.00,3.000000,,2013-07-25 14:02:00,
2013-07-25 07:33:00,47.0,46.0,-100.00,NE,47,1.0,4.0,95,-99.99,,,0.00,20.000000,,2013-07-25 14:33:00,
2013-07-25 07:43:00,47.0,46.0,-100.00,NE,47,1.0,4.0,95,-99.99,,,0.00,20.000000,,2013-07-25 14:43:00,
2013-07-25 08:44:00,51.0,48.0,-100.00,East,92,1.0,5.0,91,0.00,,,0.00,38.000000,,2013-07-25 15:44:00,
2013-07-25 08:53:00,51.0,48.0,-100.00,East,92,1.0,5.0,91,0.00,,,0.00,38.000000,,2013-07-25 15:53:00,
2013-07-25 09:45:00,64.0,49.0,-100.00,East,82,1.0,4.0,59,-99.99,,,0.00,335.000000,,2013-07-25 16:45:00,
2013-07-25 09:53:00,64.0,49.0,-100.00,East,82,1.0,4.0,59,-99.99,,,0.00,335.000000,,2013-07-25 16:53:00,
2013-07-25 10:02:00,64.0,49.0,-100.00,East,82,1.0,4.0,59,-99.99,,,0.00,335.000000,,2013-07-25 17:02:00,
2013-07-25 10:43:00,78.0,48.0,-100.00,NE,38,2.0,7.0,35,0.00,,,0.00,844.000000,,2013-07-25 17:43:00,
2013-07-25 10:53:00,78.0,48.0,-100.00,NE,38,2.0,7.0,35,0.00,,,0.00,844.000000,,2013-07-25 17:53:00,
2013-07-25 11:02:00,78.0,48.0,-100.00,NE,38,2.0,7.0,35,0.00,,,0.00,844.000000,,2013-07-25 18:02:00,
2013-07-25 11:33:00,79.0,43.0,-100.00,East,79,3.0,9.0,28,0.00,,,0.00,1034.000000,,2013-07-25 18:33:00,
2013-07-25 11:43:00,79.0,43.0,-100.00,East,79,3.0,9.0,28,0.00,,,0.00,1034.000000,,2013-07-25 18:43:00,
2013-07-25 11:52:00,79.0,43.0,-100.00,East,79,3.0,9.0,28,0.00,,,0.00,1034.000000,,2013-07-25 18:52:00,
2013-07-25 12:02:00,79.0,43.0,-100.00,East,79,3.0,9.0,28,0.00,,,0.00,1034.000000,,2013-07-25 19:02:00,
2013-07-25 12:43:00,83.0,42.0,-100.00,West,279,3.0,9.0,24,0.00,,,0.00,1168.000000,,2013-07-25 19:43:00,
2013-07-25 12:53:00,83.0,42.0,-100.00,West,279,3.0,9.0,24,0.00,,,0.00,1168.000000,,2013-07-25 19:53:00,
2013-07-25 13:02:00,83.0,42.0,-100.00,West,279,3.0,9.0,24,0.00,,,0.00,1168.000000,,2013-07-25 20:02:00,
2013-07-25 13:32:00,86.0,41.0,-100.00,West,259,4.0,14.0,21,0.00,,,0.00,1242.000000,,2013-07-25 20:32:00,
2013-07-25 13:43:00,86.0,41.0,-100.00,West,259,4.0,14.0,21,0.00,,,0.00,1242.000000,,2013-07-25 20:43:00,
2013-07-25 13:53:00,86.0,41.0,-100.00,West,259,4.0,14.0,21,0.00,,,0.00,1242.000000,,2013-07-25 20:53:00,
2013-07-25 14:02:00,86.0,41.0,-100.00,West,259,4.0,14.0,21,0.00,,,0.00,1242.000000,,2013-07-25 21:02:00,
2013-07-25 14:44:00,88.0,39.0,-100.00,NNW,329,4.0,16.0,18,0.00,,,0.00,1247.000000,,2013-07-25 21:44:00,
2013-07-25 14:52:00,88.0,39.0,-100.00,NNW,329,4.0,16.0,18,0.00,,,0.00,1247.000000,,2013-07-25 21:52:00,
2013-07-25 15:02:00,88.0,39.0,-100.00,NNW,329,4.0,16.0,18,0.00,,,0.00,1247.000000,,2013-07-25 22:02:00,
2013-07-25 15:33:00,92.0,34.0,-100.00,SW,216,3.0,13.0,13,0.00,,,0.00,1194.000000,,2013-07-25 22:33:00,
2013-07-25 15:43:00,92.0,34.0,-100.00,SW,216,3.0,13.0,13,0.00,,,0.00,1194.000000,,2013-07-25 22:43:00,
2013-07-25 16:32:00,92.0,39.0,-100.00,SSE,149,3.0,14.0,16,-99.99,,,0.00,1068.000000,,2013-07-25 23:32:00,
2013-07-25 16:43:00,92.0,39.0,-100.00,SSE,149,3.0,14.0,16,-99.99,,,0.00,1068.000000,,2013-07-25 23:43:00,
2013-07-25 16:52:00,92.0,39.0,-100.00,SSE,149,3.0,14.0,16,-99.99,,,0.00,1068.000000,,2013-07-25 23:52:00,
2013-07-25 17:33:00,91.0,43.0,-100.00,NNW,331,2.0,14.0,19,-99.99,,,0.00,886.000000,,2013-07-26 00:33:00,
2013-07-25 17:43:00,91.0,43.0,-100.00,NNW,331,2.0,14.0,19,-99.99,,,0.00,886.000000,,2013-07-26 00:43:00,
2013-07-25 17:52:00,91.0,43.0,-100.00,NNW,331,2.0,14.0,19,-99.99,,,0.00,886.000000,,2013-07-26 00:52:00,
2013-07-25 18:43:00,90.0,46.0,-100.00,WSW,251,3.0,10.0,22,-99.99,,,0.00,652.000000,,2013-07-26 01:43:00,
2013-07-25 18:52:00,90.0,46.0,-100.00,WSW,251,3.0,10.0,22,-99.99,,,0.00,652.000000,,2013-07-26 01:52:00,
2013-07-25 20:44:00,70.0,49.0,-100.00,SW,232,1.0,6.0,47,-99.99,,,0.00,70.000000,,2013-07-26 03:44:00,
2013-07-25 20:53:00,70.0,49.0,-100.00,SW,232,1.0,6.0,47,-99.99,,,0.00,70.000000,,2013-07-26 03:53:00,
2013-07-25 21:02:00,70.0,49.0,-100.00,SW,232,1.0,6.0,47,-99.99,,,0.00,70.000000,,2013-07-26 04:02:00,
2013-07-25 21:53:00,63.0,49.0,-100.00,NNW,348,1.0,8.0,60,0.00,,,0.00,5.000000,,2013-07-26 04:53:00,
2013-07-25 23:02:00,57.0,49.0,-100.00,ESE,106,1.0,2.0,74,0.00,,,0.00,0.000000,,2013-07-26 06:02:00,
2013-07-25 23:33:00,56.0,49.0,-100.00,South,176,1.0,5.0,78,0.00,,,0.00,0.000000,,2013-07-26 06:33:00,
2013-07-25 23:43:00,56.0,49.0,-100.00,South,176,1.0,5.0,78,0.00,,,0.00,0.000000,,2013-07-26 06:43:00,
2013-07-25 23:52:00,56.0,49.0,-100.00,South,176,1.0,5.0,78,0.00,,,0.00,0.000000,,2013-07-26 06:52:00,